Location: La Fredeussais
(48.1780°N, 1.3980°W)
Time: 02:36:18
(UTC+00:00)

Cosmos 1833 Rocket - Pass Details

Date: 09 May 2021
Orbit: 831 x 841 km, 71.0° (Epoch: 13 June)

Event Time Altitude Azimuth Distance (km) Brightness Sun altitude
Rises 21:27:53 0° 332° (NNW) 3,407 7.6 -15.8°
Reaches altitude 10° 21:30:20 10° 333° (NNW) 2,469 6.4 -16.0°
Maximum altitude 21:36:01 86° 61° (ENE) 851 2.7 -16.6°
Enters shadow 21:39:10 28° 151° (SSE) 1,542 3.5 -16.9°
